THOR ABLESTAR DEB, 404

Orbit data source: Space-Track

THOR ABLESTAR DEB, 404 is space debris in LEO originally from a launch on Thu, 29 Jun 1961 UTC launched from the Air Force Eastern Test Range (AFETR). Debris objects in space refer to the collection of defunct objects orbiting the Earth. Examples of debris include non-operational satellites, rocket bodies, and fragments generated from explosions, collisions, or faulty payload assembly.

Loading next visibility...
Identifier
404, 1961-015ED
Orbit
LEO
Country
Flag of USUS
Related business
Manufacturer
Unknown
Mission
Spacecraft
Bus & Motor
Unknown
Mass
Unknown
Launch date (UTC)
1961-06-29 (65 years ago)
Launch vehicle
Unknown
Launch site
Air Force Eastern Test Range (AFETR)
Object type
Payload
Rocket body
Debris
Shape & HBR
Unknown shape, 0.2 m
Radar Cross Section
Medium (>0.1 m² and <1 m²)

Expand to show TLE details & history
Last TLE update: 13 hours ago

TLE from 13 hours ago
0 THOR ABLESTAR DEB
1 00404U 61015ED  26256.03145272  .00000095  00000-0  29084-3 0  9996
2 00404  66.4678 279.4173 0549342 125.0818 240.3005 12.92579544 54597
Epoch: 2026-09-13T00:45Z
TLE epoch observation values (Epoch: 2026-09-13T00:45:17.515Z)
Latitude
0.00002°
Longitude
-83.93761°
Altitude
1,518.791 km
Speed
7.001 km/s
True Right ascension
18h 37m 40s
True Declination
0° 00' 00"
Sunlit
Object was in daylight at epoch
Visualization orbit readout
Latitude
Unknown
Longitude
Unknown
Altitude
Unknown
Speed
Unknown
Apparent Right ascension
Unknown
Apparent Declination
Unknown
Sunlit
N/A
Visualization observer readout
Local Sidereal Time
06:23:35
Azimuth
Unknown
Elevation
Unknown
Doppler factor
Unknown
Orbital elements
Apogee altitude
1,711.035 km
Perigee altitude
868.571 km
Semi-major axis
7,667.94 km
Eccentricity
0.05493
Inclination
66.4678°
RAAN
279.4173°
Arg. of periapsis
125.0818°
True anomaly
235.02003°
Mean anomaly
240.3005°
Eccentric anomaly
237.64175°
Mean motion
3.2324 °/min
Orbital period
111.37 mins
BSTAR
0.00029084
Loading maneuver chart data...
Computing Atmospheric mass density...

Documentation

Showing up to 5 results
|